Tracking 17855 objects as of 25-September-2016
HD Live streaming from Space Station
objects crossing your sky now

CZ-4C DEB

Track CZ-4C DEB now!
10-day predictions


NORAD ID: 38305
Int'l Code: 2010-009J
Perigee: 1,207.3 km
Apogee: 1,332.8 km
Inclination: 63.5 °
Period: 110.8 minutes
Semi major axis: 7641 km
RCS: 0.0013 m2 (small)
Launch date: March 5, 2010
Source: People's Republic of China (PRC)
Launch site: Jiuquan Satellite Launch Center, China (JSC)

Note: This is SATELLITE DEBRIS
Your satellite tracking list
Your tracking list is empty





NASA's NSSDC Master Catalog

Two Line Element Set (TLE):
1 38305U 10009J   16267.62166821 -.00000071 +00000-0 +25346-4 0  9996
2 38305 063.4969 288.1772 0082129 100.9833 349.9388 12.99786519145842
Source of the keplerian elements: AFSPC

N2YO: 522